カタログに戻る

STARLINK-34466

運用中通信VLEO
NORAD 66226·PAYLOAD·🇺🇸 United States

打ち上げ Oct 28, 2025 から Vandenberg Space Force Base

Loading…

次のパス (今後24時間)

TLE

最新Source: CelesTrak SupGP

元期: Sep 15, 2026, 04:06 UTC

1 66226C 25244W   26258.17131944 -.00018540  00000+0 -54784-3 0  2580
2 66226  53.1588  66.3885 0001049  85.2026  67.4320 15.34396501    17

AllMySatでSTARLINK-34466をリアルタイム追跡

Download on the App Store